DW1735 Weather Reports


time (UTC)temp
F
wind
direction
speed
knots
gust
knots
rain 1hr
in
rain 24hr
in
rain mn
in
humidity
%
barometer
mb
20190520123042 53 201 3.5 6.1 0.00 0.01 0.00 86 1008.6
20190520121553 53 207 3.5 7.0 0.00 0.01 0.00 86 1008.6
20190520120120 53 206 3.5 6.1 0.00 0.01 0.00 86 1008.6
20190520114617 53 217 3.5 7.8 0.00 0.01 0.00 86 1008.8
20190520113042 53 205 5.2 9.6 0.00 0.01 0.00 86 1008.7
20190520111544 54 203 5.2 9.6 0.00 0.01 0.00 87 1008.8
20190520110029 54 209 4.3 8.7 0.00 0.01 0.00 87 1008.7
20190520104547 54 197 5.2 8.7 0.00 0.01 0.00 87 1008.8
20190520103046 54 222 6.1 9.6 0.00 0.01 0.00 86 1008.8
20190520101516 54 219 4.3 6.1 0.00 0.01 0.00 86 1009.0
20190520100023 54 229 5.2 8.7 0.00 0.01 0.00 86 1008.9
20190520094512 54 207 3.5 7.0 0.00 0.01 0.00 86 1008.8
20190520093025 55 211 3.5 6.1 0.00 0.01 0.00 86 1008.9
20190520091510 55 209 2.6 5.2 0.00 0.01 0.00 86 1009.0
20190520090020 55 209 2.6 6.1 0.00 0.01 0.00 86 1008.9
20190520084506 55 221 3.5 7.0 0.00 0.01 0.00 86 1008.9
20190520081503 55 212 3.5 7.8 0.00 0.01 0.00 86 1008.8
20190520080008 55 207 6.1 8.7 0.00 0.01 0.00 85 1008.6
20190520074708 55 215 4.3 10.4 0.00 0.01 0.00 85 1008.6
20190520073203 56 213 6.1 8.7 0.00 0.01 0.00 85 1008.6
20190520071628 56 186 5.2 8.7 0.00 0.01 0.00 85 1008.7
20190520070212 56 205 3.5 7.0 0.00 0.01 0.01 85 1008.7
20190520064635 56 203 4.3 7.8 0.00 0.01 0.01 84 1008.7
20190520063125 57 201 5.2 12.2 0.00 0.01 0.01 83 1008.8
20190520061633 57 201 6.1 10.4 0.00 0.01 0.01 82 1008.7
20190520060141 58 207 6.1 10.4 0.00 0.01 0.01 82 1008.6
20190520054719 58 194 7.0 11.3 0.00 0.01 0.01 81 1008.8
20190520053136 58 207 7.0 9.6 0.00 0.01 0.01 81 1008.8
20190520051625 58 201 6.1 10.4 0.00 0.01 0.01 80 1008.6
20190520050207 59 225 6.1 8.7 0.00 0.01 0.01 80 1008.4
20190520044626 59 209 5.2 10.4 0.00 0.01 0.01 79 1008.3
20190520043101 60 206 6.1 11.3 0.00 0.01 0.01 78 1008.1
20190520041640 60 203 5.2 7.8 0.00 0.01 0.01 75 1008.0
20190520040050 61 197 4.3 7.0 0.00 0.01 0.01 73 1007.9
20190520034555 62 216 2.6 6.1 0.00 0.01 0.01 72 1007.8
20190520033206 62 229 5.2 8.7 0.00 0.01 0.01 71 1007.7
20190520031624 63 234 7.0 11.3 0.00 0.01 0.01 68 1007.6
20190520030128 64 215 4.3 9.6 0.00 0.01 0.01 67 1007.5
20190520024708 66 236 5.2 13.0 0.00 0.01 0.01 64 1007.2
20190520023111 67 211 6.1 8.7 0.00 0.01 0.01 57 1007.0
20190520021605 69 224 6.1 9.6 0.00 0.01 0.01 54 1006.9
20190520020056 70 198 4.3 7.8 0.00 0.01 0.01 53 1006.8
20190520014617 70 225 4.3 8.7 0.00 0.01 0.01 53 1006.8
20190520013138 71 200 4.3 8.7 0.00 0.01 0.01 54 1006.7
20190520011614 70 205 4.3 7.8 0.00 0.01 0.01 55 1006.8
20190520010139 71 186 4.3 7.8 0.00 0.01 0.01 54 1006.7
20190520004649 71 191 6.1 8.7 0.00 0.01 0.01 53 1006.7
20190520003038 71 234 2.6 7.8 0.00 0.01 0.01 52 1006.7
20190520001602 71 227 4.3 8.7 0.00 0.01 0.01 52 1006.9
20190520000044 71 218 5.2 11.3 0.00 0.01 0.01 52 1006.7
20190519234524 70 234 5.2 9.6 0.00 0.01 0.01 49 1006.7
20190519233105 70 243 4.3 7.0 0.00 0.01 0.01 50 1006.6
20190519231528 70 277 2.6 7.0 0.00 0.01 0.01 49 1006.6
20190519230028 70 236 1.7 6.1 0.00 0.01 0.01 51 1006.7
20190519224517 69 288 4.3 7.8 0.00 0.01 0.01 53 1006.9
20190519223039 68 248 3.5 8.7 0.00 0.01 0.01 53 1006.8
20190519221541 68 282 5.2 7.8 0.00 0.01 0.01 53 1006.9
20190519220015 69 275 5.2 7.0 0.00 0.01 0.01 53 1007.0
20190519214509 68 296 3.5 7.0 0.00 0.01 0.01 56 1007.0
20190519213004 67 280 3.5 7.0 0.01 0.01 0.01 56 1007.2
20190519211739 67 282 4.3 7.8 0.01 0.01 0.01 56 1007.2
20190519210246 66 256 4.3 7.0 0.01 0.01 0.01 59 1007.3
20190519204641 65 251 3.5 7.8 0.01 0.01 0.01 62 1007.4
20190519203125 65 289 4.3 8.7 0.00 0.00 0.00 62 1007.5
20190519201636 64 286 6.1 9.6 0.00 0.00 0.00 64 1007.7
20190519200112 63 276 5.2 7.8 0.00 0.00 0.00 67 1007.7
20190519194551 62 259 4.3 7.0 0.00 0.00 0.00 69 1007.6
20190519193142 62 252 4.3 7.8 0.00 0.00 0.00 70 1007.5
20190519191718 61 263 3.5 7.0 0.00 0.00 0.00 73 1007.7
20190519190042 61 252 2.6 7.0 0.00 0.00 0.00 73 1007.8
20190519184539 60 232 3.5 6.1 0.00 0.00 0.00 78 1007.7
20190519183033 59 232 3.5 5.2 0.00 0.00 0.00 78 1007.7
20190519181610 58 223 2.6 4.3 0.00 0.00 0.00 81 1007.6
20190519180054 58 222 2.6 4.3 0.00 0.00 0.00 82 1007.7
20190519174533 57 222 2.6 5.2 0.00 0.00 0.00 82 1007.8
20190519173035 57 221 2.6 5.2 0.00 0.00 0.00 84 1007.6
20190519171551 57 219 1.7 5.2 0.00 0.00 0.00 85 1007.6
20190519170017 56 217 2.6 4.3 0.00 0.00 0.00 86 1007.7
20190519164520 56 217 2.6 4.3 0.00 0.00 0.00 86 1007.6
20190519163018 56 217 2.6 4.3 0.00 0.00 0.00 87 1007.6
20190519161511 56 217 1.7 3.5 0.00 0.00 0.00 88 1007.6
20190519160012 55 217 0.9 2.6 0.00 0.00 0.00 89 1007.5
20190519154509 55 217 1.7 3.5 0.00 0.00 0.00 91 1007.5
20190519153032 54 217 0.0 2.6 0.00 0.00 0.00 92 1007.5
20190519151503 54 217 0.9 2.6 0.00 0.00 0.00 92 1007.3
20190519150151 53 217 0.0 0.0 0.00 0.00 0.00 92 1007.2
20190519144636 53 217 0.0 0.0 0.00 0.00 0.00 92 1007.1
20190519143138 53 217 0.0 0.0 0.00 0.00 0.00 92 1006.9
20190519141630 53 217 0.0 0.0 0.00 0.00 0.00 92 1006.9
20190519140228 53 217 0.0 0.0 0.00 0.00 0.00 91 1006.8
20190519134617 53 217 0.0 0.0 0.00 0.00 0.00 91 1006.7
20190519133123 53 217 0.0 0.0 0.00 0.00 0.00 91 1006.6
20190519131646 53 217 0.0 0.0 0.00 0.00 0.00 90 1006.3
20190519130126 53 217 0.0 2.6 0.00 0.00 0.00 90 1006.2
20190519124610 53 217 1.7 4.3 0.00 0.00 0.00 90 1006.0